User: anonymous   Login
Location: Unspecified
(0.0000°N, 0.0000°E)
Time: 06:46:20
(UTC+00:00)
Language:

CENTISPACE-1 S15 - Orbit

View from above orbital plane
View from above orbital plane
View from above satellite
View from above satellite

Ground track
Ground track

The orbit is defined by the following mean orbital elements,

1 62584U          26145.60242662 +.00000000 +00000-0 +10055-3 0 00008
2 62584  54.9879  11.5397 0014594  37.9488 322.2494 13.80608774    07
Epoch (UTC): 25 May 2026 14:27:29
Eccentricity: 0.0014594
inclination: 54.9879°
perigee height: 951 km
apogee height: 972 km
right ascension of ascending node: 11.5397°
argument of perigee: 37.9488°
revolutions per day: 13.80608774
mean anomaly at epoch: 322.2494°

The dashed part of the orbit path shows where the satellite is in the earth's shadow,  

DLR